SCP
0 0 0 0 0 0 0 0 0 0 0 0 0 0 0 0 0 0 0 0 0 0 0 0 0 0 0 0 0 0 0 0 0 0 0 0 0 0 0 0 0 0 0 0
0 0 0 0 0 0 0 0 0 0 0 0 0 0 0 0 0 0 0 0 0 0 0 0 0 0 0 0 0 0 0 0 0 0 0 0 0 0 0 0 0 0 0 0
0 0 0 0 0 0 0 0 0 0 0 0 0 0 0 0 0 0 0 0 0 0 0 0 0 0 0 0 0 0 0 0 0 0 0 0 0 0 0 0 0 0 0 0
0 0 0 0 0 0 0 0 0 0 0 0 0 0 0 0 0 0 0 0 0 0 0 0 0 0 0 0 0 0 0 0 0 0 0 0 0 0 0 0 0 0 0 0
0 0 0 0 -0 0 0 0 0 0 0 0 0 0 0 0 0 0 0 0 0 0 0 0 0 0 0 0 0 0 0 0 0 0 0 0 0 0 0 0 0 0 0 0
0 0 0 0 -0 0 0 0 0 0 0 0 0 0 0 0 0 0 0 0 0 0 0 0 0 0 0 0 0 0 0 0 0 0 0 0 0 0 0 0 0 0 0 0
0 0 0 0 0 0 0 0 0 0 0 0 0 0 0 0 0 0 0 0 0 0 0 0 0 0 0 0 0 0 0 0 0 0 0 0 0 0 0 0 0 0 0 0
0 0 0 0 0 0 0 0 0 0 0 0 0 0 0 0 0 0 0 0 0 0 0 0 0 0 0 0 0 0 0 0 0 0 0 0 0 0 0 0 0 0 0 0
0 0 0 0 0 0 0 0 0 0 0 0 0 0 0 0 0 0 0 0 0 0 0 0 0 0 0 0 0 0 0 0 0 0 0 0 0 0 0 0 0 0 0 0
0 0 0 0 0 0 0 0 0 0 0 0 0 0 0 0 0 0 0 0 0 0 0 0 0 0 0 0 0 0 0 0 0 0 0 0 0 0 0 0 0 0 0 0
0 0 0 0 0 0 0 0 0 0 0 0 0 0 0 0 0 0 0 0 0 0 0 0 0 0 0 0 0 0 0 0 0 0 0 0 0 0 0 0 0 0 0 0
0 0 0 0 0 0 0 0 0 0 0 0 0 0 0 0 0 0 0 0 0 0 0 0 0 0 0 0 0 0 0 0 0 0 0 0 0 0 0 0 0 0 0 0
0 0 0 0 0 0 0 0 0 0 0 0 0 0 0 0 0 0 0 0 0 0 0 0 0 0 0 0 0 0 0 0 0 0 0 0 0 0 0 0 0 0 0 0
0 0 0 0 0 0 0 0 0 0 0 0 0 0 0 0 0 0 0 0 0 0 0 0 0 0 0 0 0 0 0 0 0 0 0 0 0 0 0 0 0 0 0 0
0 0 0 0 0 0 0 0 0 0 0 0 0 0 0 0 0 0 0 0 0 0 0 0 0 0 0 0 0 0 0 0 0 0 0 0 0 0 0 0 0 0 0 0
0 0 0 0 0 0 0 0 0 0 0 0 0 0 0 0 0 0 0 0 0 0 0 0 0 0 0 0 0 0 0 0 0 0 0 0 0 0 0 0 0 0 0 0
0 0 0 0 0 0 0 0 0 0 0 0 0 0 0 0 0 0 0 0 0 0 0 0 0 0 0 0 0 0 0 0 0 0 0 0 0 0 0 0 0 0 0 0
0 0 0 0 0 0 0 0 0 0 0 0 0 0 0 0 0 0 0 0 0 0 0 0 0 0 0 0 0 0 0 0 0 0 0 0 0 0 0 0 0 0 0 0
0 0 0 0 0 0 0 0 0 0 0 0 0 0 0 0 0 0 0 0 0 0 0 0 0 0 0 0 0 0 0 0 0 0 0 0 0 0 0 0 0 0 0 0
0 0 0 0 0 0 0 0 0 0 0 0 0 0 0 0 0 0 0 0 0 0 0 0 0 0 0 0 0 0 0 0 0 0 0 0 0 0 0 0 0 0 0 0
0 0 0 0 0 0 0 0 0 0 0 0 0 0 0 0 0 0 0 0 0 0 0 0 0 0 0 0 0 0 0 0 0 0 0 0 0 0 0 0 0 0 0 0
0 0 0 0 0 0 0 0 0 0 0 0 0 0 0 0 0 0 0 0 0 0 0 0 0 0 0 0 0 0 0 0 0 0 0 0 0 0 0 0 0 0 0 0
0 0 0 0 0 0 0 0 0 0 0 0 0 0 0 0 0 0 0 0 0 0 0 0 0 0 0 0 0 0 0 0 0 0 0 0 0 0 0 0 0 0 0 0
0 0 0 0 0 0 0 0 0 0 0 0 0 0 0 0 0 0 0 0 0 0 0 0 0 0 0 0 0 0 0 0 0 0 0 0 0 0 0 0 0 0 0 0
0 0 0 0 0 0 0 0 0 0 0 0 0 0 0 0 0 0 0 0 0 0 0 0 0 0 0 0 0 0 0 0 0 0 0 0 0 0 0 0 0 0 0 0
0 0 0 0 0 0 0 0 0 0 0 0 0 0 0 0 0 0 0 0 0 0 0 0 0 0 0 0 0 0 0 0 0 0 0 0 0 0 0 0 0 0 0 0
0 0 0 0 0 0 0 0 0 0 0 0 0 0 0 0 0 0 0 0 0 0 0 0 0 0 0 0 0 0 0 0 0 0 0 0 0 0 0 0 0 0 0 0
Wind_Speed
8 6 8 10 16 18 19 18 16 18 19 18 12 10 9 8 7 6 6 6 7 7 6 5 5 5 5 5 4 4 4 5 6 5 4 4 5 5 5 6 7 8 8 9
9 9 11 11 17 21 23 22 19 16 20 18 11 7 8 8 8 8 8 9 8 8 7 7 7 6 5 5 5 4 5 5 3 2 2 3 3 3 3 4 4 5 6 7
7 5 7 16 21 24 22 23 24 25 28 12 10 14 14 12 10 11 11 10 10 9 8 8 7 7 7 6 4 4 4 4 2 2 2 2 2 2 3 3 3 4 4 5
4 6 14 12 12 16 22 24 23 22 20 16 16 14 11 11 12 12 11 10 9 8 7 6 5 5 4 3 3 3 3 2 2 2 2 1 1 2 2 2 2 2 3 3
5 7 8 8 9 18 21 23 23 24 23 17 9 5 10 12 12 12 11 9 8 6 5 4 3 4 4 3 2 2 2 2 2 2 2 1 1 2 1 1 1 1 1 2
5 7 11 11 7 8 9 17 16 20 23 17 9 11 17 11 10 9 7 5 5 3 3 2 2 3 5 4 3 3 2 2 2 2 2 2 2 1 0 0 1 0 1 1
9 8 10 9 5 11 13 17 11 15 18 14 17 19 11 6 8 8 6 5 4 4 3 2 2 5 5 4 2 1 2 2 2 2 2 1 1 1 1 1 1 1 1 1
8 8 12 6 7 13 10 5 4 8 12 13 14 11 5 5 6 5 4 4 4 5 4 3 3 5 5 3 1 2 3 3 2 2 1 1 2 2 2 1 1 1 1 1
9 9 4 2 4 4 3 3 4 4 5 6 7 7 5 5 5 4 5 4 5 7 6 4 4 4 5 3 2 3 4 3 3 3 2 2 2 2 2 1 1 1 0 1
5 6 4 3 3 4 5 4 4 4 3 2 4 4 3 4 4 4 4 5 5 7 7 5 4 4 4 3 3 4 4 3 3 3 3 3 2 2 2 1 1 1 0 1
5 4 4 4 3 6 7 6 5 5 3 0 3 3 3 4 4 4 5 5 5 6 6 5 4 4 4 3 2 4 5 4 3 3 3 3 3 3 2 2 1 1 0 0
5 2 4 5 6 7 6 6 5 4 3 3 3 4 5 5 5 5 5 5 6 6 6 5 4 4 5 4 2 4 5 4 3 2 2 2 3 3 7 5 6 6 4 2
7 7 6 7 6 6 5 5 5 3 2 3 4 5 6 5 6 6 6 6 6 6 6 5 5 5 5 4 3 4 4 4 3 3 3 2 2 2 2 4 7 9 9 8
6 7 5 3 5 6 5 5 4 5 6 5 5 6 6 7 7 7 6 6 6 7 6 5 5 6 6 4 4 5 4 4 3 3 3 2 2 2 2 2 2 3 6 9
8 8 6 5 5 6 5 4 4 5 5 6 6 5 6 7 7 6 6 6 7 7 6 5 6 6 6 4 4 5 4 3 3 3 3 3 3 3 2 3 2 2 3 5
12 8 6 4 5 6 6 5 3 4 4 4 5 5 6 7 8 7 6 5 6 7 5 5 6 5 5 5 4 4 4 5 4 3 3 3 3 3 3 3 3 3 3 3
7 6 6 5 6 6 6 5 4 3 3 3 4 5 6 8 8 7 7 6 7 7 6 6 5 5 5 5 4 4 4 4 5 4 4 3 3 3 3 3 3 3 3 4
6 6 6 5 4 4 4 5 4 4 3 3 4 5 6 7 7 6 5 4 6 8 8 7 5 5 6 6 4 3 3 4 4 4 3 3 3 3 3 3 3 3 3 4
6 5 5 5 4 3 3 4 4 4 4 4 4 5 6 6 6 5 5 5 6 6 6 7 7 7 6 6 5 4 4 4 4 4 3 4 4 3 3 3 3 3 3 3
6 6 5 5 6 5 4 4 4 5 5 4 5 6 7 6 5 5 6 7 5 3 3 5 5 5 5 6 6 4 4 4 4 3 3 3 3 3 2 2 2 2 2 2
6 6 6 5 5 6 6 5 4 5 5 5 6 6 6 5 5 4 4 5 4 4 4 5 4 4 4 4 5 4 4 3 3 3 2 2 2 2 2 2 2 2 2 2
6 5 6 5 5 5 6 5 5 5 6 6 6 5 5 5 5 5 5 3 2 4 3 3 3 4 4 4 3 3 3 3 2 2 1 1 1 1 1 2 2 2 2 2
4 4 5 5 4 4 5 6 6 5 5 5 5 5 4 3 2 2 2 2 2 3 3 2 3 4 4 3 2 2 2 2 1 1 1 1 1 1 2 2 2 2 3 3
4 4 4 4 3 4 5 5 5 4 4 4 4 4 3 2 2 2 1 2 3 3 2 3 4 4 4 2 2 1 1 1 1 1 2 2 2 2 2 3 3 3 3 4
3 3 3 4 3 3 3 3 3 4 4 3 3 3 2 2 1 2 2 3 3 3 2 4 5 4 3 2 2 2 2 2 2 2 3 3 3 3 3 4 4 4 4 4
2 2 2 2 2 2 2 2 2 2 2 2 2 2 2 2 2 2 2 2 3 3 3 2 3 3 2 2 2 3 3 3 3 3 4 4 4 4 4 5 6 5 5 5
2 2 2 2 1 1 1 1 1 2 2 2 3 3 2 2 2 3 3 3 3 3 3 3 3 3 3 3 3 4 4 4 4 4 4 4 5 5 5 6 6 5 5 6
Wind_Direction
240 230 193 207 208 206 212 218 222 233 238 243 231 223 228 227 223 216 219 220 218 219 221 221 225 228 225 226 216 199 199 213 225 225 226 230 233 232 228 223 223 222 221 223
240 232 214 221 215 212 218 221 229 241 247 240 231 217 227 225 215 215 221 223 225 225 222 220 221 224 225 227 219 192 202 222 227 223 227 237 246 247 239 233 229 223 223 223
227 219 213 225 213 212 216 218 219 230 239 235 214 217 219 218 214 218 222 223 221 220 218 218 217 214 216 220 201 186 202 215 211 208 224 242 258 256 252 249 239 233 232 226
206 186 224 232 207 209 220 225 221 229 239 228 221 224 222 216 213 221 223 223 223 221 221 221 218 211 207 188 177 185 198 208 195 186 215 239 255 263 271 280 269 257 253 245
205 217 247 269 213 199 209 230 222 228 237 238 226 232 245 226 216 219 220 218 219 215 210 203 201 191 162 157 157 169 197 204 191 177 194 212 239 262 272 273 277 281 294 269
205 213 227 238 221 194 196 246 229 222 232 231 197 226 243 217 208 217 215 207 201 187 163 161 181 149 141 153 154 186 201 188 164 161 177 199 218 226 243 250 280 334 324 318
210 223 249 251 213 145 188 234 228 218 228 220 213 229 242 188 195 202 198 189 167 144 132 138 131 131 137 138 167 186 136 125 125 134 149 162 153 128 117 104 90 72 31 7
196 211 241 240 170 180 219 244 226 222 225 223 230 235 230 198 190 181 175 166 151 133 115 81 88 122 128 130 120 105 111 112 108 101 101 114 124 117 111 117 114 87 49 359
202 216 236 201 212 260 309 268 261 251 246 225 226 230 220 202 179 165 158 146 128 126 114 84 63 99 121 106 93 107 109 107 101 96 86 89 110 113 100 97 99 87 50 322
229 250 264 287 311 340 335 308 302 296 279 214 205 205 196 170 153 140 126 124 121 121 119 99 64 62 70 74 97 113 113 107 100 100 88 73 73 84 93 95 92 76 4 315
236 268 299 294 335 334 334 339 343 343 337 267 151 145 143 137 130 124 115 107 112 121 119 104 77 60 44 41 90 112 108 100 93 88 94 83 70 60 71 60 64 80 68 341
242 274 268 283 326 335 335 337 335 343 359 16 94 122 118 114 107 105 102 99 101 100 100 91 75 58 30 17 55 107 107 99 92 88 81 79 79 58 51 55 50 48 43 34
291 305 278 283 311 336 330 331 342 1 35 47 59 92 106 103 95 91 87 87 92 93 91 84 74 55 23 9 46 85 97 97 92 88 87 83 81 83 62 35 44 44 34 26
327 323 295 315 328 339 345 353 13 28 38 51 64 79 93 95 91 89 87 84 86 86 79 73 69 46 7 5 55 78 81 78 80 80 79 78 75 72 71 65 35 10 9 16
336 327 304 315 330 345 355 12 31 35 39 45 55 73 91 98 95 85 77 80 85 80 68 65 63 33 359 11 56 71 73 68 66 68 65 64 63 64 63 61 53 26 8 6
315 316 329 343 350 354 360 11 27 26 31 45 59 67 78 89 89 79 66 66 86 81 62 58 54 16 0 21 53 62 61 60 64 68 66 61 56 57 55 52 46 34 22 355
322 322 331 333 341 346 350 356 6 19 39 57 70 84 93 97 92 82 70 64 75 73 54 46 37 12 15 28 50 61 63 61 61 66 63 60 58 55 54 55 46 31 5 357
312 307 309 307 314 331 353 8 19 27 34 57 81 89 91 97 100 95 90 92 88 70 43 23 26 29 26 27 41 51 64 65 60 61 59 57 54 49 50 49 42 30 5 1
330 330 337 347 350 359 13 18 20 27 33 55 79 85 83 82 86 86 80 76 70 60 23 3 27 34 27 24 41 46 58 66 65 58 56 56 55 45 44 43 34 22 8 6
349 352 359 10 17 23 27 23 29 41 39 53 77 83 78 73 78 83 78 68 46 26 354 4 20 28 24 25 35 44 52 59 62 57 51 50 48 39 32 30 24 14 6 0
351 356 4 14 21 25 26 25 38 47 42 50 70 78 78 68 61 68 80 73 28 9 12 21 26 23 21 25 34 43 48 52 54 52 47 40 32 22 12 2 353 348 342 334
349 357 3 9 21 26 21 25 36 48 52 53 56 64 73 67 60 60 59 63 17 1 10 13 14 20 26 32 37 41 42 42 41 38 31 17 3 343 330 323 316 312 310 306
348 356 3 8 11 18 26 30 31 39 46 46 47 46 49 45 30 53 62 16 357 359 10 1 358 10 25 36 34 34 30 22 9 352 329 311 297 287 285 288 284 284 286 286
351 357 359 1 13 32 32 20 19 27 33 35 35 31 29 34 32 28 18 342 346 351 355 339 347 1 14 18 6 357 340 320 300 288 282 277 271 268 267 269 273 273 272 275
342 349 359 9 19 18 10 0 10 22 24 22 17 14 11 2 346 329 331 329 331 340 334 331 337 344 350 329 312 297 286 274 269 267 264 265 265 265 264 264 263 266 267 267
333 333 333 332 322 327 338 346 352 350 354 351 345 344 345 339 328 317 314 314 315 314 311 311 313 313 301 290 284 280 277 277 276 269 262 263 263 263 263 263 264 263 263 263
313 310 310 315 317 315 318 317 312 314 318 313 307 310 316 317 315 312 309 307 306 302 296 292 289 283 280 278 276 273 270 267 265 264 263 261 260 260 262 262 263 264 264 264